SCP
-0 -0 -0 -0 0 0 0 0 0 0 0 0 0 0 0 -0 -0 -0 -0 -0 -0 -0 -0 -0 0 0 -0 -0 -0 -1 -1 -1 -1 -1 -0 -0 -0 -0 -0 -0 -0 -0 -0 -0 -0 -0 -0 -0 -0
0 0 0 -0 0 0 0 0 0 0 0 0 0 -0 -0 0 -0 -0 -0 -0 -0 -0 -0 -0 -0 -0 -0 -0 -0 -1 -1 -1 -1 -1 -0 -0 -0 -0 -0 -0 -0 -0 -0 -0 -0 -0 -0 -0 -0
-0 0 -0 0 -0 0 0 0 0 0 0 0 0 0 0 -0 0 -0 -0 -0 -0 -0 -0 -0 -0 -0 -0 -0 -0 -0 -1 -1 -1 -0 -0 -0 -0 -0 -0 -0 -0 -0 -0 -0 -0 -0 -0 -0 -0
0 0 0 -0 0 0 0 0 0 0 0 0 0 0 0 0 0 0 -0 -0 -0 -0 -0 -0 -0 -0 -0 -0 -0 -0 -0 -0 -0 -0 -0 -0 -0 -0 -0 -0 -0 -0 -0 -0 -0 -0 -0 -0 -0
0 0 0 -0 -0 0 0 0 0 0 0 0 0 0 0 0 0 -0 -0 -0 -0 -0 -0 -0 -0 -0 -0 -0 -0 -0 -0 -0 -0 -0 -0 -0 -0 -0 -0 -0 -0 -0 -0 -0 -0 -0 -0 -0 -0
0 0 0 -0 0 0 0 0 0 0 0 0 0 0 0 0 0 -0 -0 -0 -0 -0 -0 -0 -0 -0 -0 -0 -0 -0 -0 -0 -0 -0 -0 -0 -0 -0 -0 -0 -0 -0 -0 -0 -0 -0 0 0 -0
0 0 0 0 0 0 0 0 0 0 0 0 0 0 0 0 0 -0 -0 -0 -0 -0 -0 -0 -0 -0 -0 -0 -0 -0 -0 -0 -0 -0 -0 -0 -0 -0 -0 -0 -0 -0 -0 -0 0 0 0 -0 -0
0 0 0 0 0 0 0 0 0 0 0 0 0 0 0 -0 -0 -0 -0 -0 -0 -0 -0 -0 -0 -0 -0 -0 -0 -0 -0 -0 -0 -0 -0 -0 -0 -0 -0 -0 -0 0 -0 0 -0 0 -0 0 0
0 0 0 0 0 0 0 0 0 0 0 0 0 0 0 -0 -0 -0 -0 -0 -0 -0 -0 -0 -0 -0 -0 -0 -0 -0 -0 -0 -0 -0 -0 -0 -0 -0 -0 -0 -0 -0 -0 -0 -0 -0 -0 0 0
0 0 0 0 0 0 0 0 0 0 0 0 0 0 -0 -0 -0 -0 -0 -0 -0 -0 -0 -0 -0 -0 -0 -0 -0 -0 -0 -0 -0 -0 -0 -0 0 0 0 -0 0 0 0 -0 -0 0 0 0 0
0 0 0 0 0 0 0 0 0 0 0 0 0 0 -0 -0 -0 -0 -0 -0 -0 -0 0 -0 0 -0 -0 -0 -0 -0 -0 -0 0 0 0 0 0 0 0 0 0 0 0 0 0 0 0 -0 0
0 0 0 0 0 0 0 0 0 0 0 0 0 0 0 -0 -0 -0 -0 -0 -0 -0 -0 0 -0 0 0 0 -0 -0 -0 0 0 0 0 0 0 0 0 0 0 0 0 0 0 0 0 0 0
0 0 0 0 0 0 0 0 0 0 0 0 0 0 -0 -0 0 0 0 0 0 -0 -0 -0 -0 -0 -0 -0 -0 -0 -0 -0 0 0 0 0 0 0 0 0 0 0 0 0 0 0 0 0 0
0 0 0 0 0 0 0 0 0 0 0 0 0 0 0 0 0 0 0 0 0 -0 0 -0 -0 -0 -0 -0 -0 -0 -0 0 -0 0 0 -0 0 0 0 0 0 0 0 0 0 0 0 0 0
0 0 0 0 0 0 0 0 0 0 0 -0 0 0 0 0 0 0 0 0 0 -0 0 0 -0 -0 -0 -0 -0 -0 -0 -0 -0 -0 0 0 0 0 0 0 0 0 0 0 0 0 0 0 0
0 0 0 0 0 0 0 0 0 0 0 0 0 1 0 0 0 0 0 0 0 0 0 0 0 0 -0 -0 0 0 0 -0 -0 0 0 0 0 0 0 0 0 0 0 0 0 0 0 0 0
0 0 0 0 0 0 0 0 0 0 0 1 1 1 1 1 1 1 0 0 0 0 0 0 0 0 0 0 0 0 0 0 0 0 0 0 0 0 0 0 0 0 0 0 0 0 0 1 0
0 0 0 0 0 0 0 0 0 0 0 1 1 1 1 1 1 1 1 0 0 0 0 0 0 0 0 0 0 0 0 0 0 0 0 0 0 0 0 0 0 0 0 0 0 1 1 1 1
0 0 0 0 0 0 0 0 0 0 0 1 1 1 1 1 1 1 1 0 0 0 0 0 0 0 1 1 0 0 0 0 0 0 0 0 0 0 0 0 0 1 1 1 1 1 1 1 1
0 0 0 0 0 0 0 0 0 0 0 1 1 1 1 1 1 1 1 1 0 0 0 0 0 1 1 1 0 0 0 0 0 0 1 0 0 1 1 1 1 2 1 1 1 1 1 1 1
0 0 0 0 0 0 0 0 0 1 1 1 1 1 0 0 0 1 0 0 0 0 0 0 0 1 1 1 1 1 1 1 1 1 1 1 1 1 1 1 1 1 0 0 0 0 0 0 0
0 -0 0 0 0 0 0 0 0 0 1 1 1 1 1 0 1 1 0 0 0 0 0 0 0 1 1 0 0 1 1 1 1 1 0 0 0 0 0 0 0 0 1 1 1 0 0 0 1
0 0 0 0 0 0 0 0 0 0 0 0 0 1 0 0 0 0 1 1 0 0 0 0 0 0 1 1 1 1 0 1 0 0 0 0 0 0 0 0 0 0 0 0 0 0 0 0 0
0 0 0 0 0 0 0 0 0 0 0 0 0 0 0 1 0 1 1 1 1 0 0 0 0 0 0 0 1 0 1 0 0 0 0 0 0 0 0 0 0 0 0 0 0 0 0 0 0
0 0 0 0 0 0 0 0 0 0 0 0 0 0 0 1 0 1 1 0 0 0 0 0 0 0 0 0 0 0 0 0 0 0 0 0 0 0 0 0 0 0 0 0 0 0 0 0 0
-0 0 0 0 0 0 0 0 0 0 0 0 0 0 0 1 1 1 0 0 0 0 0 0 0 0 0 0 0 0 0 0 0 0 0 0 0 0 0 0 0 0 0 0 0 0 0 0 0
0 0 0 0 0 0 0 0 0 0 0 0 0 0 0 1 1 1 0 0 0 0 0 0 0 0 0 0 0 0 0 0 0 0 0 0 0 0 0 0 0 0 0 0 0 0 0 0 0
0 0 0 0 0 0 0 0 0 0 0 0 0 0 0 0 1 0 0 0 0 0 0 0 0 0 0 0 0 0 0 0 0 0 0 0 0 0 0 0 0 0 0 0 0 0 0 0 0
0 0 0 0 0 0 0 0 0 0 0 0 0 0 0 0 0 0 0 0 0 0 0 0 0 0 0 0 0 0 0 0 0 0 0 0 0 0 0 0 0 0 0 0 0 0 0 0 0
0 0 0 0 0 0 0 0 0 0 0 0 0 0 0 0 0 0 0 0 0 0 0 0 0 0 0 0 0 0 0 0 0 0 0 0 0 0 0 0 0 0 0 0 0 0 0 0 0
Wind_Speed_500mb
24 17 9 11 14 11 4 13 6 10 12 4 4 3 16 21 17 9 26 21 45 47 48 52 51 47 41 37 35 38 38 35 32 29 25 21 19 20 18 13 12 11 11 13 13 9 7 9 13
18 12 9 12 15 14 13 8 9 11 9 12 8 10 8 15 16 22 31 40 47 46 47 48 49 46 43 40 37 36 37 34 31 29 25 20 19 17 13 11 9 10 11 12 11 10 11 13 17
18 14 18 9 15 17 7 10 12 11 15 12 10 13 9 10 12 25 24 46 49 43 44 47 47 44 41 39 37 36 35 32 30 26 22 21 18 14 12 12 13 13 13 14 15 17 18 19 21
15 12 13 18 22 5 7 17 13 19 12 9 8 19 16 14 17 15 40 49 47 41 40 47 45 42 39 36 34 31 30 30 29 26 24 21 18 16 16 15 13 14 16 17 19 21 24 24 23
18 13 18 24 28 8 7 6 2 11 16 11 6 16 14 13 19 34 42 47 45 42 39 49 46 42 38 34 31 27 27 28 28 27 23 20 19 19 17 15 14 17 18 21 23 24 25 27 23
20 16 18 27 27 14 11 15 12 10 12 12 9 16 17 20 28 38 42 44 43 41 39 42 47 41 36 31 26 23 25 27 27 26 24 23 22 20 18 17 16 17 21 24 27 25 25 19 17
31 19 29 29 20 21 16 13 19 22 20 20 6 10 20 26 33 41 41 41 42 41 36 45 44 44 36 30 25 22 23 25 26 26 26 25 24 21 20 16 16 19 22 25 24 21 16 16 15
28 17 35 23 24 21 10 17 12 12 10 7 20 12 21 38 41 42 40 40 40 40 36 48 39 40 38 34 29 24 24 24 26 27 26 25 24 22 18 15 16 18 24 22 20 15 12 10 8
20 16 25 33 24 18 13 19 14 4 13 17 22 5 26 52 49 45 43 41 41 38 35 39 38 37 35 31 32 29 28 28 28 27 27 26 19 20 13 18 15 16 22 22 19 14 8 3 5
30 25 31 13 9 15 19 12 3 4 15 21 17 26 48 54 52 50 48 46 45 43 38 36 38 38 37 33 32 28 28 26 25 25 30 23 20 18 17 18 19 18 19 21 19 15 8 1 5
28 35 21 10 22 10 14 12 2 7 16 23 35 43 53 53 49 45 42 40 42 41 42 37 40 39 38 33 30 27 25 25 25 26 27 23 21 19 19 14 18 16 16 12 14 11 8 8 8
24 31 30 23 18 20 22 3 9 13 7 10 26 43 49 57 50 45 41 38 40 41 39 38 36 42 38 32 30 27 26 26 26 26 28 25 21 20 20 19 19 19 17 17 16 13 15 15 13
36 31 25 39 26 29 21 25 18 20 15 10 33 46 48 47 47 42 38 36 36 37 37 42 46 47 37 34 30 28 26 25 25 26 27 24 21 21 21 22 22 20 21 19 18 18 17 16 16
16 39 44 26 37 44 33 33 17 13 14 26 45 50 49 47 47 44 40 38 37 36 35 40 47 47 35 33 31 27 25 24 25 25 24 27 21 20 19 20 21 22 22 21 21 21 20 20 20
37 22 25 42 36 22 35 31 32 21 20 34 45 48 49 46 43 41 39 37 36 35 34 36 42 42 42 32 31 28 25 23 23 24 28 27 27 23 22 19 20 21 21 22 23 23 23 22 24
24 32 26 33 39 36 29 37 36 19 30 36 47 49 50 46 40 36 35 33 35 34 35 31 34 38 42 31 30 27 27 25 22 24 26 28 26 27 25 20 20 20 21 21 23 24 25 26 27
20 21 30 14 35 23 33 34 30 26 31 38 45 49 50 44 38 34 32 33 34 35 34 31 28 28 34 31 29 32 25 28 26 25 25 27 29 27 27 22 22 23 21 23 25 26 26 26 29
26 24 23 23 27 28 37 33 29 30 34 38 45 49 47 45 37 32 31 30 31 32 32 31 31 33 32 32 28 25 26 25 26 26 25 27 27 29 29 25 25 24 24 26 28 31 28 26 24
19 30 25 17 23 35 40 26 28 29 31 41 45 46 43 38 29 29 34 35 31 32 35 36 38 39 38 37 33 29 28 25 25 26 32 30 30 32 34 28 24 25 26 28 31 32 33 34 36
20 24 23 16 13 21 31 28 19 17 25 32 37 39 38 30 29 29 33 31 29 30 35 36 37 41 43 37 31 28 27 24 21 22 25 28 28 32 33 30 27 35 27 29 36 43 46 51 52
29 27 24 15 19 17 27 26 24 19 20 21 29 31 31 29 29 27 28 31 31 33 37 37 36 41 45 40 37 32 27 33 27 26 32 32 33 38 45 34 29 29 42 45 53 58 64 61 67
31 33 17 17 27 26 38 24 35 30 28 28 35 37 33 31 27 23 22 23 27 30 32 39 42 45 43 48 36 41 32 28 30 44 41 37 42 40 36 37 40 45 60 54 65 71 64 56 56
24 9 26 22 28 10 31 29 42 37 32 35 44 45 39 36 32 27 24 22 20 25 29 33 38 40 43 45 42 38 35 45 43 41 40 34 34 35 34 40 38 38 40 40 37 35 34 35 31
18 17 18 19 17 22 26 33 27 33 41 41 44 47 43 40 35 29 27 25 21 21 24 27 30 33 36 37 41 43 45 46 43 39 37 37 36 36 35 31 27 24 26 31 34 36 37 39 40
32 30 18 20 16 3 19 16 15 15 39 36 42 45 43 42 37 36 32 28 25 23 21 25 27 29 31 33 35 37 38 38 38 39 38 35 32 30 30 25 22 22 21 20 21 25 28 31 33
42 36 17 27 22 14 13 14 11 10 4 20 18 43 41 41 38 35 32 28 26 25 23 24 26 26 28 30 32 34 35 36 36 35 33 30 24 23 20 19 18 19 19 19 18 18 21 25 28
26 22 9 7 8 5 16 6 15 14 15 15 17 22 37 41 40 38 33 30 27 25 22 23 25 28 28 29 29 30 31 30 29 25 24 23 22 22 21 21 20 18 16 15 14 16 17 20 23
21 22 13 15 15 25 16 15 12 20 17 11 9 16 25 34 37 35 34 31 28 25 25 25 24 23 24 25 26 26 26 26 25 24 25 24 24 23 20 19 16 14 14 14 13 16 20 20 18
12 18 13 9 8 12 17 18 12 17 10 7 7 5 15 27 34 35 36 32 28 25 26 29 29 29 28 26 27 26 26 26 25 25 24 23 22 20 18 15 13 12 13 14 14 13 14 13 17
8 21 31 20 24 18 17 7 9 13 13 13 12 6 6 17 27 33 35 33 29 26 24 27 31 32 31 33 34 32 30 28 27 25 23 21 20 18 17 16 15 13 11 10 10 10 13 15 15
Wind_Direction_500mb
223 234 257 267 252 233 199 142 11 137 166 104 133 341 43 30 6 37 142 154 155 155 160 162 165 168 170 170 170 172 171 171 169 165 160 156 153 146 145 148 145 144 147 144 140 135 123 118 119
210 216 238 264 257 232 143 100 169 84 82 115 123 137 125 73 47 116 140 146 152 155 158 164 165 167 169 172 173 175 176 177 175 172 166 164 163 159 161 163 165 155 149 153 148 134 120 117 118
184 191 248 241 249 250 98 133 126 128 125 123 113 60 63 58 89 128 152 151 154 156 157 168 165 166 167 170 172 175 180 182 181 177 174 172 169 170 174 168 158 148 142 142 136 126 118 115 112
166 197 243 247 239 198 93 102 114 152 139 97 117 90 93 86 132 142 143 150 153 156 162 169 166 165 166 168 170 175 181 183 183 182 178 177 177 173 168 161 158 154 147 139 133 124 119 114 107
177 229 238 238 242 155 205 219 245 168 141 154 189 112 96 108 120 138 145 151 155 156 168 169 169 168 169 169 170 175 182 185 182 180 178 179 172 164 160 152 150 155 151 143 134 125 123 119 103
196 246 234 232 224 196 210 209 176 185 152 127 189 135 104 131 132 146 150 154 159 160 168 171 171 172 173 171 173 175 180 182 182 180 175 172 167 161 153 139 138 147 146 145 137 129 126 120 104
238 216 241 254 250 193 216 157 203 202 208 191 203 182 130 146 148 150 153 157 160 162 167 167 172 176 177 177 176 175 175 174 174 171 168 168 165 162 154 136 136 141 148 151 146 136 126 114 105
232 260 249 240 236 227 148 181 155 200 213 159 184 181 166 165 152 151 153 158 162 164 172 173 172 174 177 182 178 175 175 175 170 168 167 168 168 168 164 150 148 145 157 160 153 147 135 121 88
211 239 240 230 229 222 157 191 165 197 217 191 189 160 145 158 152 152 155 159 163 167 175 169 174 178 173 179 181 176 177 175 172 173 173 170 163 167 165 169 177 158 162 170 168 168 164 135 28
211 228 240 265 221 235 166 216 202 274 184 176 139 128 144 152 156 158 163 164 168 169 174 174 175 179 175 181 182 174 177 179 174 177 181 167 180 175 172 204 178 173 167 179 184 192 198 191 240
217 240 236 250 250 253 187 211 311 297 227 204 182 157 156 157 160 162 165 170 170 175 171 177 177 179 180 181 182 180 183 186 187 184 181 179 190 200 181 197 190 188 190 186 208 223 236 236 244
245 226 249 239 213 230 229 288 251 265 241 194 189 170 165 162 163 163 164 167 169 175 179 174 182 181 182 184 181 187 184 189 192 193 188 194 188 200 195 196 197 197 213 206 209 223 228 236 251
222 246 229 236 249 234 241 250 270 258 241 178 172 172 169 165 159 161 161 165 169 175 184 180 186 186 185 186 189 193 191 189 194 196 200 199 195 200 204 205 203 209 216 221 229 230 243 256 266
207 235 242 240 231 238 242 243 237 202 207 176 172 171 169 167 160 158 161 166 170 172 183 190 193 200 184 192 196 199 198 202 194 202 208 202 201 209 207 214 213 218 221 227 237 248 252 261 263
237 246 220 231 227 223 221 236 224 236 184 173 175 170 166 165 161 161 165 170 173 173 180 195 198 201 184 201 205 203 210 207 207 204 211 209 210 221 203 217 223 230 234 236 247 245 258 260 266
219 232 243 200 211 218 212 206 204 188 177 174 170 165 164 164 161 162 167 173 178 179 184 189 199 201 199 202 208 210 212 211 218 212 214 219 220 221 229 226 233 237 240 243 248 255 257 266 271
200 223 216 158 192 188 205 212 145 180 180 168 168 162 162 161 164 167 173 178 184 188 194 199 206 208 201 209 213 208 210 211 216 219 218 223 221 225 231 231 240 250 250 248 251 257 265 266 268
192 222 198 215 181 202 196 219 153 178 181 172 166 162 165 165 168 166 172 183 193 197 207 213 208 199 199 201 205 211 212 212 211 217 222 225 228 232 238 239 243 254 260 259 263 259 259 263 267
209 210 194 163 171 193 194 190 172 174 184 172 168 167 170 169 169 172 183 197 195 203 208 211 209 208 205 198 203 205 208 210 214 215 220 231 237 236 238 241 244 254 253 254 262 279 276 277 277
231 208 195 113 196 228 189 176 164 187 192 179 176 178 175 176 168 173 189 197 201 204 210 212 209 210 210 204 197 202 204 206 201 209 220 231 236 246 252 243 235 235 251 282 280 283 278 275 274
220 219 198 207 165 232 187 173 190 190 192 198 192 189 188 187 177 176 188 201 205 207 210 209 208 209 209 202 201 202 199 203 210 225 234 235 237 251 255 255 251 246 252 254 243 261 271 270 260
220 215 237 195 193 204 204 201 192 181 197 198 198 197 195 192 187 177 177 193 203 209 212 213 213 213 209 212 207 208 206 215 215 229 245 255 253 255 264 265 257 256 250 252 247 254 263 268 264
234 190 214 211 214 166 193 241 188 178 204 202 203 199 198 195 193 187 178 181 187 200 206 212 216 216 218 217 209 217 219 227 239 245 249 250 255 256 254 261 265 260 255 259 257 253 247 245 250
220 193 198 197 210 218 168 217 157 189 208 204 198 199 197 195 197 192 187 180 184 194 199 199 203 212 217 219 221 222 230 237 241 238 241 248 252 257 262 266 265 253 247 252 253 251 254 259 263
199 185 170 197 200 237 138 214 46 172 197 204 196 195 198 197 197 195 193 188 192 183 179 192 196 199 206 211 217 224 227 228 233 243 246 243 245 252 258 254 251 250 249 252 255 256 258 258 259
200 198 198 205 202 148 149 228 110 76 79 200 204 198 199 199 200 199 197 193 192 186 179 187 189 197 201 206 211 218 223 225 228 229 233 232 226 229 237 236 242 247 252 256 258 259 257 260 262
168 214 326 307 33 274 151 111 140 143 142 168 192 205 203 206 207 204 198 193 186 180 181 179 188 196 198 204 205 207 209 212 213 218 215 218 223 234 240 246 251 254 258 260 261 256 262 265 267
205 166 192 217 217 236 162 177 118 159 162 135 161 192 205 206 207 207 202 193 187 183 186 188 194 199 206 203 202 203 206 205 206 211 217 219 226 228 228 232 236 244 257 266 270 280 280 278 274
166 190 231 298 306 260 218 195 87 91 84 76 80 151 196 201 205 205 199 196 191 190 192 198 201 204 204 206 212 212 210 210 211 214 217 218 218 216 219 225 235 250 264 272 272 275 284 294 297
320 242 202 226 191 229 294 101 93 88 70 59 56 89 175 195 199 199 198 195 194 197 196 200 204 206 207 209 211 213 217 218 217 217 217 217 218 218 220 229 240 254 270 286 298 308 315 318 316
Wind_Speed_850mb
24 17 9 11 14 11 4 13 6 10 12 4 4 3 16 21 17 9 26 21 45 47 48 52 51 47 41 37 35 38 38 35 32 29 25 21 19 20 18 13 12 11 11 13 13 9 7 9 13
18 12 9 12 15 14 13 8 9 11 9 12 8 10 8 15 16 22 31 40 47 46 47 48 49 46 43 40 37 36 37 34 31 29 25 20 19 17 13 11 9 10 11 12 11 10 11 13 17
18 14 18 9 15 17 7 10 12 11 15 12 10 13 9 10 12 25 24 46 49 43 44 47 47 44 41 39 37 36 35 32 30 26 22 21 18 14 12 12 13 13 13 14 15 17 18 19 21
15 12 13 18 22 5 7 17 13 19 12 9 8 19 16 14 17 15 40 49 47 41 40 47 45 42 39 36 34 31 30 30 29 26 24 21 18 16 16 15 13 14 16 17 19 21 24 24 23
18 13 18 24 28 8 7 6 2 11 16 11 6 16 14 13 19 34 42 47 45 42 39 49 46 42 38 34 31 27 27 28 28 27 23 20 19 19 17 15 14 17 18 21 23 24 25 27 23
20 16 18 27 27 14 11 15 12 10 12 12 9 16 17 20 28 38 42 44 43 41 39 42 47 41 36 31 26 23 25 27 27 26 24 23 22 20 18 17 16 17 21 24 27 25 25 19 17
31 19 29 29 20 21 16 13 19 22 20 20 6 10 20 26 33 41 41 41 42 41 36 45 44 44 36 30 25 22 23 25 26 26 26 25 24 21 20 16 16 19 22 25 24 21 16 16 15
28 17 35 23 24 21 10 17 12 12 10 7 20 12 21 38 41 42 40 40 40 40 36 48 39 40 38 34 29 24 24 24 26 27 26 25 24 22 18 15 16 18 24 22 20 15 12 10 8
20 16 25 33 24 18 13 19 14 4 13 17 22 5 26 52 49 45 43 41 41 38 35 39 38 37 35 31 32 29 28 28 28 27 27 26 19 20 13 18 15 16 22 22 19 14 8 3 5
30 25 31 13 9 15 19 12 3 4 15 21 17 26 48 54 52 50 48 46 45 43 38 36 38 38 37 33 32 28 28 26 25 25 30 23 20 18 17 18 19 18 19 21 19 15 8 1 5
28 35 21 10 22 10 14 12 2 7 16 23 35 43 53 53 49 45 42 40 42 41 42 37 40 39 38 33 30 27 25 25 25 26 27 23 21 19 19 14 18 16 16 12 14 11 8 8 8
24 31 30 23 18 20 22 3 9 13 7 10 26 43 49 57 50 45 41 38 40 41 39 38 36 42 38 32 30 27 26 26 26 26 28 25 21 20 20 19 19 19 17 17 16 13 15 15 13
36 31 25 39 26 29 21 25 18 20 15 10 33 46 48 47 47 42 38 36 36 37 37 42 46 47 37 34 30 28 26 25 25 26 27 24 21 21 21 22 22 20 21 19 18 18 17 16 16
16 39 44 26 37 44 33 33 17 13 14 26 45 50 49 47 47 44 40 38 37 36 35 40 47 47 35 33 31 27 25 24 25 25 24 27 21 20 19 20 21 22 22 21 21 21 20 20 20
37 22 25 42 36 22 35 31 32 21 20 34 45 48 49 46 43 41 39 37 36 35 34 36 42 42 42 32 31 28 25 23 23 24 28 27 27 23 22 19 20 21 21 22 23 23 23 22 24
24 32 26 33 39 36 29 37 36 19 30 36 47 49 50 46 40 36 35 33 35 34 35 31 34 38 42 31 30 27 27 25 22 24 26 28 26 27 25 20 20 20 21 21 23 24 25 26 27
20 21 30 14 35 23 33 34 30 26 31 38 45 49 50 44 38 34 32 33 34 35 34 31 28 28 34 31 29 32 25 28 26 25 25 27 29 27 27 22 22 23 21 23 25 26 26 26 29
26 24 23 23 27 28 37 33 29 30 34 38 45 49 47 45 37 32 31 30 31 32 32 31 31 33 32 32 28 25 26 25 26 26 25 27 27 29 29 25 25 24 24 26 28 31 28 26 24
19 30 25 17 23 35 40 26 28 29 31 41 45 46 43 38 29 29 34 35 31 32 35 36 38 39 38 37 33 29 28 25 25 26 32 30 30 32 34 28 24 25 26 28 31 32 33 34 36
20 24 23 16 13 21 31 28 19 17 25 32 37 39 38 30 29 29 33 31 29 30 35 36 37 41 43 37 31 28 27 24 21 22 25 28 28 32 33 30 27 35 27 29 36 43 46 51 52
29 27 24 15 19 17 27 26 24 19 20 21 29 31 31 29 29 27 28 31 31 33 37 37 36 41 45 40 37 32 27 33 27 26 32 32 33 38 45 34 29 29 42 45 53 58 64 61 67
31 33 17 17 27 26 38 24 35 30 28 28 35 37 33 31 27 23 22 23 27 30 32 39 42 45 43 48 36 41 32 28 30 44 41 37 42 40 36 37 40 45 60 54 65 71 64 56 56
24 9 26 22 28 10 31 29 42 37 32 35 44 45 39 36 32 27 24 22 20 25 29 33 38 40 43 45 42 38 35 45 43 41 40 34 34 35 34 40 38 38 40 40 37 35 34 35 31
18 17 18 19 17 22 26 33 27 33 41 41 44 47 43 40 35 29 27 25 21 21 24 27 30 33 36 37 41 43 45 46 43 39 37 37 36 36 35 31 27 24 26 31 34 36 37 39 40
32 30 18 20 16 3 19 16 15 15 39 36 42 45 43 42 37 36 32 28 25 23 21 25 27 29 31 33 35 37 38 38 38 39 38 35 32 30 30 25 22 22 21 20 21 25 28 31 33
42 36 17 27 22 14 13 14 11 10 4 20 18 43 41 41 38 35 32 28 26 25 23 24 26 26 28 30 32 34 35 36 36 35 33 30 24 23 20 19 18 19 19 19 18 18 21 25 28
26 22 9 7 8 5 16 6 15 14 15 15 17 22 37 41 40 38 33 30 27 25 22 23 25 28 28 29 29 30 31 30 29 25 24 23 22 22 21 21 20 18 16 15 14 16 17 20 23
21 22 13 15 15 25 16 15 12 20 17 11 9 16 25 34 37 35 34 31 28 25 25 25 24 23 24 25 26 26 26 26 25 24 25 24 24 23 20 19 16 14 14 14 13 16 20 20 18
12 18 13 9 8 12 17 18 12 17 10 7 7 5 15 27 34 35 36 32 28 25 26 29 29 29 28 26 27 26 26 26 25 25 24 23 22 20 18 15 13 12 13 14 14 13 14 13 17
8 21 31 20 24 18 17 7 9 13 13 13 12 6 6 17 27 33 35 33 29 26 24 27 31 32 31 33 34 32 30 28 27 25 23 21 20 18 17 16 15 13 11 10 10 10 13 15 15
Wind_Direction_850mb
223 234 257 267 252 233 199 142 11 137 166 104 133 341 43 30 6 37 142 154 155 155 160 162 165 168 170 170 170 172 171 171 169 165 160 156 153 146 145 148 145 144 147 144 140 135 123 118 119
210 216 238 264 257 232 143 100 169 84 82 115 123 137 125 73 47 116 140 146 152 155 158 164 165 167 169 172 173 175 176 177 175 172 166 164 163 159 161 163 165 155 149 153 148 134 120 117 118
184 191 248 241 249 250 98 133 126 128 125 123 113 60 63 58 89 128 152 151 154 156 157 168 165 166 167 170 172 175 180 182 181 177 174 172 169 170 174 168 158 148 142 142 136 126 118 115 112
166 197 243 247 239 198 93 102 114 152 139 97 117 90 93 86 132 142 143 150 153 156 162 169 166 165 166 168 170 175 181 183 183 182 178 177 177 173 168 161 158 154 147 139 133 124 119 114 107
177 229 238 238 242 155 205 219 245 168 141 154 189 112 96 108 120 138 145 151 155 156 168 169 169 168 169 169 170 175 182 185 182 180 178 179 172 164 160 152 150 155 151 143 134 125 123 119 103
196 246 234 232 224 196 210 209 176 185 152 127 189 135 104 131 132 146 150 154 159 160 168 171 171 172 173 171 173 175 180 182 182 180 175 172 167 161 153 139 138 147 146 145 137 129 126 120 104
238 216 241 254 250 193 216 157 203 202 208 191 203 182 130 146 148 150 153 157 160 162 167 167 172 176 177 177 176 175 175 174 174 171 168 168 165 162 154 136 136 141 148 151 146 136 126 114 105
232 260 249 240 236 227 148 181 155 200 213 159 184 181 166 165 152 151 153 158 162 164 172 173 172 174 177 182 178 175 175 175 170 168 167 168 168 168 164 150 148 145 157 160 153 147 135 121 88
211 239 240 230 229 222 157 191 165 197 217 191 189 160 145 158 152 152 155 159 163 167 175 169 174 178 173 179 181 176 177 175 172 173 173 170 163 167 165 169 177 158 162 170 168 168 164 135 28
211 228 240 265 221 235 166 216 202 274 184 176 139 128 144 152 156 158 163 164 168 169 174 174 175 179 175 181 182 174 177 179 174 177 181 167 180 175 172 204 178 173 167 179 184 192 198 191 240
217 240 236 250 250 253 187 211 311 297 227 204 182 157 156 157 160 162 165 170 170 175 171 177 177 179 180 181 182 180 183 186 187 184 181 179 190 200 181 197 190 188 190 186 208 223 236 236 244
245 226 249 239 213 230 229 288 251 265 241 194 189 170 165 162 163 163 164 167 169 175 179 174 182 181 182 184 181 187 184 189 192 193 188 194 188 200 195 196 197 197 213 206 209 223 228 236 251
222 246 229 236 249 234 241 250 270 258 241 178 172 172 169 165 159 161 161 165 169 175 184 180 186 186 185 186 189 193 191 189 194 196 200 199 195 200 204 205 203 209 216 221 229 230 243 256 266
207 235 242 240 231 238 242 243 237 202 207 176 172 171 169 167 160 158 161 166 170 172 183 190 193 200 184 192 196 199 198 202 194 202 208 202 201 209 207 214 213 218 221 227 237 248 252 261 263
237 246 220 231 227 223 221 236 224 236 184 173 175 170 166 165 161 161 165 170 173 173 180 195 198 201 184 201 205 203 210 207 207 204 211 209 210 221 203 217 223 230 234 236 247 245 258 260 266
219 232 243 200 211 218 212 206 204 188 177 174 170 165 164 164 161 162 167 173 178 179 184 189 199 201 199 202 208 210 212 211 218 212 214 219 220 221 229 226 233 237 240 243 248 255 257 266 271
200 223 216 158 192 188 205 212 145 180 180 168 168 162 162 161 164 167 173 178 184 188 194 199 206 208 201 209 213 208 210 211 216 219 218 223 221 225 231 231 240 250 250 248 251 257 265 266 268
192 222 198 215 181 202 196 219 153 178 181 172 166 162 165 165 168 166 172 183 193 197 207 213 208 199 199 201 205 211 212 212 211 217 222 225 228 232 238 239 243 254 260 259 263 259 259 263 267
209 210 194 163 171 193 194 190 172 174 184 172 168 167 170 169 169 172 183 197 195 203 208 211 209 208 205 198 203 205 208 210 214 215 220 231 237 236 238 241 244 254 253 254 262 279 276 277 277
231 208 195 113 196 228 189 176 164 187 192 179 176 178 175 176 168 173 189 197 201 204 210 212 209 210 210 204 197 202 204 206 201 209 220 231 236 246 252 243 235 235 251 282 280 283 278 275 274
220 219 198 207 165 232 187 173 190 190 192 198 192 189 188 187 177 176 188 201 205 207 210 209 208 209 209 202 201 202 199 203 210 225 234 235 237 251 255 255 251 246 252 254 243 261 271 270 260
220 215 237 195 193 204 204 201 192 181 197 198 198 197 195 192 187 177 177 193 203 209 212 213 213 213 209 212 207 208 206 215 215 229 245 255 253 255 264 265 257 256 250 252 247 254 263 268 264
234 190 214 211 214 166 193 241 188 178 204 202 203 199 198 195 193 187 178 181 187 200 206 212 216 216 218 217 209 217 219 227 239 245 249 250 255 256 254 261 265 260 255 259 257 253 247 245 250
220 193 198 197 210 218 168 217 157 189 208 204 198 199 197 195 197 192 187 180 184 194 199 199 203 212 217 219 221 222 230 237 241 238 241 248 252 257 262 266 265 253 247 252 253 251 254 259 263
199 185 170 197 200 237 138 214 46 172 197 204 196 195 198 197 197 195 193 188 192 183 179 192 196 199 206 211 217 224 227 228 233 243 246 243 245 252 258 254 251 250 249 252 255 256 258 258 259
200 198 198 205 202 148 149 228 110 76 79 200 204 198 199 199 200 199 197 193 192 186 179 187 189 197 201 206 211 218 223 225 228 229 233 232 226 229 237 236 242 247 252 256 258 259 257 260 262
168 214 326 307 33 274 151 111 140 143 142 168 192 205 203 206 207 204 198 193 186 180 181 179 188 196 198 204 205 207 209 212 213 218 215 218 223 234 240 246 251 254 258 260 261 256 262 265 267
205 166 192 217 217 236 162 177 118 159 162 135 161 192 205 206 207 207 202 193 187 183 186 188 194 199 206 203 202 203 206 205 206 211 217 219 226 228 228 232 236 244 257 266 270 280 280 278 274
166 190 231 298 306 260 218 195 87 91 84 76 80 151 196 201 205 205 199 196 191 190 192 198 201 204 204 206 212 212 210 210 211 214 217 218 218 216 219 225 235 250 264 272 272 275 284 294 297
320 242 202 226 191 229 294 101 93 88 70 59 56 89 175 195 199 199 198 195 194 197 196 200 204 206 207 209 211 213 217 218 217 217 217 217 218 218 220 229 240 254 270 286 298 308 315 318 316